TimeCST,TemperatureF,Dew PointF,Humidity,Sea Level PressureIn,VisibilityMPH,Wind Direction,Wind SpeedMPH,Gust SpeedMPH,PrecipitationIn,Events,Conditions,WindDirDegrees,DateUTC
12:17 AM,55.4,55.4,100,30.04,10.0,NNW,8.1,-,N/A,,Overcast,340,2013-01-02 06:17:00
12:24 AM,55.4,55.4,100,30.03,10.0,North,6.9,-,N/A,,Overcast,350,2013-01-02 06:24:00
12:51 AM,55.9,54.0,93,30.04,10.0,NNW,10.4,-,N/A,,Overcast,340,2013-01-02 06:51:00
1:09 AM,55.4,53.6,94,30.05,10.0,NNW,10.4,-,N/A,,Overcast,330,2013-01-02 07:09:00
1:51 AM,55.0,53.1,93,30.05,10.0,NNW,11.5,-,N/A,,Overcast,340,2013-01-02 07:51:00
2:51 AM,55.0,53.1,93,30.05,10.0,North,9.2,-,N/A,,Overcast,350,2013-01-02 08:51:00
3:16 AM,53.6,51.8,94,30.05,10.0,North,8.1,16.1,N/A,,Overcast,350,2013-01-02 09:16:00
3:51 AM,54.0,52.0,93,30.05,10.0,North,11.5,18.4,N/A,,Overcast,350,2013-01-02 09:51:00
4:51 AM,54.0,51.1,90,30.06,10.0,North,9.2,19.6,N/A,,Overcast,360,2013-01-02 10:51:00
5:51 AM,53.1,51.1,93,30.08,10.0,North,10.4,16.1,N/A,,Overcast,10,2013-01-02 11:51:00
6:51 AM,53.1,51.1,93,30.10,10.0,North,12.7,19.6,N/A,,Overcast,350,2013-01-02 12:51:00
7:51 AM,52.0,50.0,93,30.13,10.0,North,10.4,19.6,N/A,,Overcast,360,2013-01-02 13:51:00
8:35 AM,51.8,48.2,88,30.15,10.0,North,8.1,17.3,N/A,,Overcast,360,2013-01-02 14:35:00
8:51 AM,52.0,48.9,89,30.15,10.0,North,9.2,18.4,N/A,,Overcast,350,2013-01-02 14:51:00
9:51 AM,52.0,48.9,89,30.16,10.0,North,6.9,18.4,N/A,,Overcast,360,2013-01-02 15:51:00
10:30 AM,51.8,48.2,88,30.14,9.0,North,9.2,-,N/A,,Overcast,360,2013-01-02 16:30:00
10:51 AM,52.0,48.9,89,30.15,10.0,North,8.1,-,N/A,,Overcast,360,2013-01-02 16:51:00
11:51 AM,51.1,48.0,89,30.13,6.0,North,9.2,-,0.00,,Overcast,350,2013-01-02 17:51:00
12:51 PM,51.1,48.9,92,30.11,2.5,North,8.1,-,0.00,Rain,Light Rain,360,2013-01-02 18:51:00
12:59 PM,51.8,48.2,88,30.11,2.5,North,8.1,-,0.01,Rain,Light Rain,10,2013-01-02 18:59:00
1:18 PM,50.0,48.2,94,30.10,2.5,North,8.1,-,0.01,Rain,Light Rain,360,2013-01-02 19:18:00
1:27 PM,50.0,48.2,94,30.10,4.0,Variable,6.9,-,0.01,Rain,Light Rain,0,2013-01-02 19:27:00
1:38 PM,51.8,48.2,88,30.10,5.0,Variable,6.9,-,0.01,,Overcast,0,2013-01-02 19:38:00
1:51 PM,50.0,48.9,96,30.10,2.5,North,8.1,-,0.01,Rain,Light Rain,350,2013-01-02 19:51:00
2:01 PM,51.8,48.2,88,30.09,1.8,Variable,6.9,-,0.00,Rain,Light Rain,0,2013-01-02 20:01:00
2:10 PM,51.8,48.2,88,30.09,2.5,North,6.9,-,0.00,Rain,Light Rain,360,2013-01-02 20:10:00
2:19 PM,51.8,48.2,88,30.09,4.0,North,8.1,-,0.00,Rain,Light Rain,360,2013-01-02 20:19:00
2:30 PM,51.8,48.2,88,30.10,5.0,North,6.9,-,0.00,,Overcast,360,2013-01-02 20:30:00
2:51 PM,51.1,48.0,89,30.11,6.0,North,6.9,-,0.00,Rain,Light Rain,360,2013-01-02 20:51:00
3:00 PM,50.0,48.2,94,30.11,3.0,North,8.1,-,0.00,Rain,Light Rain,350,2013-01-02 21:00:00
3:11 PM,51.8,48.2,88,30.12,5.0,North,6.9,-,0.00,Rain,Light Rain,350,2013-01-02 21:11:00
3:30 PM,50.0,48.2,94,30.14,2.5,NNW,13.8,-,0.00,Rain,Light Rain,340,2013-01-02 21:30:00
3:40 PM,50.0,48.2,94,30.15,1.5,NNW,12.7,20.7,0.00,Rain,Light Rain,340,2013-01-02 21:40:00
3:51 PM,50.0,48.0,93,30.14,2.0,NNW,10.4,-,0.01,Rain,Light Rain,340,2013-01-02 21:51:00
4:02 PM,50.0,48.2,94,30.14,5.0,NNW,11.5,-,0.00,Rain,Light Rain,330,2013-01-02 22:02:00
4:13 PM,50.0,48.2,94,30.14,7.0,NNW,12.7,-,0.00,,Overcast,330,2013-01-02 22:13:00
4:51 PM,50.0,46.9,89,30.15,9.0,NNW,11.5,19.6,0.00,,Overcast,340,2013-01-02 22:51:00
5:51 PM,51.1,46.9,86,30.15,10.0,NNW,11.5,19.6,N/A,,Overcast,340,2013-01-02 23:51:00
6:51 PM,51.1,46.9,86,30.14,10.0,North,9.2,-,N/A,,Overcast,350,2013-01-03 00:51:00
7:51 PM,50.0,48.0,93,30.19,8.0,NNW,11.5,-,0.00,Rain,Light Rain,340,2013-01-03 01:51:00
8:06 PM,50.0,46.4,87,30.18,9.0,NNW,13.8,19.6,0.00,Rain,Light Rain,340,2013-01-03 02:06:00
8:51 PM,50.0,46.9,89,30.17,8.0,North,8.1,19.6,0.00,,Overcast,360,2013-01-03 02:51:00
9:51 PM,48.9,46.9,93,30.19,5.0,Variable,5.8,-,0.00,Rain,Light Rain,0,2013-01-03 03:51:00
10:01 PM,48.2,46.4,93,30.18,4.0,North,6.9,-,0.01,Rain,Light Rain,360,2013-01-03 04:01:00
10:18 PM,48.2,48.2,100,30.18,4.0,North,8.1,-,0.03,Rain,Rain,350,2013-01-03 04:18:00
10:51 PM,48.9,46.9,93,30.19,4.0,NNW,13.8,18.4,0.07,Rain,Rain,340,2013-01-03 04:51:00
10:59 PM,48.2,46.4,93,30.20,3.0,NNW,12.7,-,0.02,Rain,Rain,340,2013-01-03 04:59:00
11:15 PM,48.2,46.4,93,30.20,4.0,North,10.4,18.4,0.04,Rain,Rain,350,2013-01-03 05:15:00
11:43 PM,48.2,46.4,93,30.21,4.0,NNW,11.5,-,0.10,Rain,Rain,340,2013-01-03 05:43:00
11:51 PM,48.0,46.9,96,30.22,4.0,NNW,9.2,-,0.11,Rain,Light Rain,340,2013-01-03 05:51:00